Yamaha R6 Cup Ergebnisse EuroSpeedway Lausitz

Art: Rennen - Austragungsort: Klettwitz - Datum 24.04.2011 - Startzeit: 10:15 MEZ
Pos Fahrer/Land Fahrzeug Team Rdn Zeit Differenz kmh
1 » Jesko Raffin (CH) 13 23:17,131 142,530
2 » Robin Mulhauser (CH) 13 23:24,691 0:07,560 141,763
3 » Patrick Vincon (D) 13 23:24,692 0:07,561 141,763
4 » Danny Märtz (D) 13 23:31,101 0:13,970 141,119
5 » Alain Bonnet (F) 13 23:32,630 0:15,499 140,966
6 » Robert Neubert (D) 13 23:39,066 0:21,935 140,327
7 » Ville Valtonen (FIN) 13 23:43,332 0:26,201 139,906
8 » Andreas Klambauer (A) 13 23:45,366 0:28,235 139,707
9 » Koen Zeelen (NL) 13 23:47,475 0:30,344 139,500
10 » Patryk Kosiniak (PL) 13 23:49,347 0:32,216 139,318
11 » Toni Riedel (D) 13 23:51,996 0:34,865 139,060
12 » Florian Müller (D) 13 23:55,059 0:37,928 138,763
13 » Marko Visak (HR) 13 23:55,936 0:38,805 138,678
14 » Frank Jurisch (D) 13 24:03,567 0:46,436 137,945
15 » Maik Strässle (CH) 13 24:03,845 0:46,714 137,919
16 » Ben Bollen (D) 13 24:06,311 0:49,180 137,684
17 » Felix Valentin (DK) 13 24:06,565 0:49,434 137,659
18 » Manou Antweiler (D) 13 24:06,730 0:49,599 137,644
19 » Christopher Gonsior (D) 13 24:07,206 0:50,075 137,598
20 » Ivan Visak (HR) 13 24:07,325 0:50,194 137,587
21 » Marc Hepelmann (D) 13 24:07,950 0:50,819 137,528
22 » Lucy Glöckner (D) 13 24:14,428 0:57,297 136,915
23 » Johannes Kanzler (D) 13 24:16,076 0:58,945 136,760
24 » Norman Plambeck (D) 13 24:19,910 1:02,779 136,401
25 » Toprak Razgatlioglu (TR) 13 24:20,078 1:02,947 136,385
26 » Joël Bigler (CH) 13 24:20,713 1:03,582 136,326
27 » Baris Tok (TR) 13 24:21,692 1:04,561 136,235
28 » Sebastian Frotscher (D) 13 24:22,240 1:05,109 136,184
29 » Marc Buchner (D) 13 24:25,747 1:08,616 135,858
30 » Dominik Engelen (D) 13 24:34,770 1:17,639 135,027
31 » Gerald Pfund (A) 13 24:35,117 1:17,986 134,995
32 » Anil Tetik (TR) 13 24:47,306 1:30,175 133,889
33 » Michal Irzyk (PL) 13 24:47,597 1:30,466 133,862
34 » Yevgen Sokolovskiy (D) 13 25:05,975 1:48,844 132,229
35 » Reto-Luc Wiederkehr (CH) 12 23:25,820 1 Runde 130,753
36 » Philippe von Gunten (CH) 12 24:47,804 1 Runde 123,548
- » Marc Kreutzfeldt (D) 8 14:47,165 138,129
- » Patrik Zupancic (D) 7 13:37,019 131,240
- » Emrah Kiygan (TR) 3 6:42,020 114,307
- » Niels Prins (NL) 2 3:46,803 135,077
- » Gerry Wegmann (CH) 0

Klettwitz

Klettwitz
Informationen

» Deutsche Motor Sport Wirtschaftsdienst GmbH
» Deutscher Motor Sport Bund e.V.
» Klettwitz

EuroSpeedway Lausitz

Art: Rennen - Datum: 23.04. - 24.04.2011
Datum Startzeit Art Ergebnis Bericht Bilder
23.04.11 10:55 1. Qualifying
23.04.11 15:25 2. Qualifying
24.04.11 10:15 EuroSpeedway Lausitz
» Zur Startaufstellung
3DE